Time,TemperatureF,DewpointF,PressureIn,WindDirection,WindDirectionDegrees,WindSpeedMPH,WindSpeedGustMPH,Humidity,HourlyPrecipIn,Conditions,Clouds,dailyrainin,SoftwareType,DateUTC
2013-04-21 00:04:00,-999.0,-99.9,30.25,North,-999,-999.0,-999.0,-999,0.00,,,0.00,weatherlink.com 1.10,2013-04-21 04:04:00,
2013-04-21 00:19:00,-999.0,-99.9,30.26,North,-999,-999.0,-999.0,-999,0.00,,,0.00,weatherlink.com 1.10,2013-04-21 04:19:00,
2013-04-21 00:34:00,-999.0,-99.9,30.26,North,-999,-999.0,-999.0,-999,0.00,,,0.00,weatherlink.com 1.10,2013-04-21 04:34:00,
2013-04-21 00:49:00,-999.0,-99.9,30.27,North,-999,-999.0,-999.0,-999,0.00,,,0.00,weatherlink.com 1.10,2013-04-21 04:49:00,
2013-04-21 01:04:00,-999.0,-99.9,30.27,North,-999,-999.0,-999.0,-999,0.00,,,0.00,weatherlink.com 1.10,2013-04-21 05:04:00,
2013-04-21 01:19:00,-999.0,-99.9,30.27,North,-999,-999.0,-999.0,-999,0.00,,,0.00,weatherlink.com 1.10,2013-04-21 05:19:00,
2013-04-21 01:34:00,-999.0,-99.9,30.27,North,-999,-999.0,-999.0,-999,0.00,,,0.00,weatherlink.com 1.10,2013-04-21 05:34:00,
2013-04-21 01:49:00,-999.0,-99.9,30.27,North,-999,-999.0,-999.0,-999,0.00,,,0.00,weatherlink.com 1.10,2013-04-21 05:49:00,
2013-04-21 02:04:00,-999.0,-99.9,30.27,North,-999,-999.0,-999.0,-999,0.00,,,0.00,weatherlink.com 1.10,2013-04-21 06:04:00,
2013-04-21 02:19:00,-999.0,-99.9,30.27,North,-999,-999.0,-999.0,-999,0.00,,,0.00,weatherlink.com 1.10,2013-04-21 06:19:00,
2013-04-21 02:34:00,-999.0,-99.9,30.27,North,-999,-999.0,-999.0,-999,0.00,,,0.00,weatherlink.com 1.10,2013-04-21 06:34:00,
2013-04-21 02:49:00,-999.0,-99.9,30.28,North,-999,-999.0,-999.0,-999,0.00,,,0.00,weatherlink.com 1.10,2013-04-21 06:49:00,
2013-04-21 03:04:00,-999.0,-99.9,30.27,North,-999,-999.0,-999.0,-999,0.00,,,0.00,weatherlink.com 1.10,2013-04-21 07:04:00,
2013-04-21 03:20:00,-999.0,-99.9,30.28,North,-999,-999.0,-999.0,-999,0.00,,,0.00,weatherlink.com 1.10,2013-04-21 07:20:00,
2013-04-21 03:35:00,-999.0,-99.9,30.29,North,-999,-999.0,-999.0,-999,0.00,,,0.00,weatherlink.com 1.10,2013-04-21 07:35:00,
2013-04-21 03:50:00,-999.0,-99.9,30.30,North,-999,-999.0,-999.0,-999,0.00,,,0.00,weatherlink.com 1.10,2013-04-21 07:50:00,
2013-04-21 04:05:00,-999.0,-99.9,30.30,North,-999,-999.0,-999.0,-999,0.00,,,0.00,weatherlink.com 1.10,2013-04-21 08:05:00,
2013-04-21 04:20:00,-999.0,-99.9,30.31,North,-999,-999.0,-999.0,-999,0.00,,,0.00,weatherlink.com 1.10,2013-04-21 08:20:00,
2013-04-21 04:35:00,-999.0,-99.9,30.32,North,-999,-999.0,-999.0,-999,0.00,,,0.00,weatherlink.com 1.10,2013-04-21 08:35:00,
2013-04-21 04:50:00,-999.0,-99.9,30.32,North,-999,-999.0,-999.0,-999,0.00,,,0.00,weatherlink.com 1.10,2013-04-21 08:50:00,
2013-04-21 05:05:00,-999.0,-99.9,30.33,North,-999,-999.0,-999.0,-999,0.00,,,0.00,weatherlink.com 1.10,2013-04-21 09:05:00,
2013-04-21 05:20:00,-999.0,-99.9,30.34,North,-999,-999.0,-999.0,-999,0.00,,,0.00,weatherlink.com 1.10,2013-04-21 09:20:00,
2013-04-21 05:35:00,-999.0,-99.9,30.35,North,-999,-999.0,-999.0,-999,0.00,,,0.00,weatherlink.com 1.10,2013-04-21 09:35:00,
2013-04-21 05:50:00,-999.0,-99.9,30.36,North,-999,-999.0,-999.0,-999,0.00,,,0.00,weatherlink.com 1.10,2013-04-21 09:50:00,
2013-04-21 06:05:00,-999.0,-99.9,30.36,North,-999,-999.0,-999.0,-999,0.00,,,0.00,weatherlink.com 1.10,2013-04-21 10:05:00,
2013-04-21 06:20:00,-999.0,-99.9,30.37,North,-999,-999.0,-999.0,-999,0.00,,,0.00,weatherlink.com 1.10,2013-04-21 10:20:00,
2013-04-21 06:35:00,-999.0,-99.9,30.38,North,-999,-999.0,-999.0,-999,0.00,,,0.00,weatherlink.com 1.10,2013-04-21 10:35:00,
2013-04-21 06:51:00,-999.0,-99.9,30.38,North,-999,-999.0,-999.0,-999,0.00,,,0.00,weatherlink.com 1.10,2013-04-21 10:51:00,
2013-04-21 07:06:00,-999.0,-99.9,30.39,North,-999,-999.0,-999.0,-999,0.00,,,0.00,weatherlink.com 1.10,2013-04-21 11:06:00,
2013-04-21 07:21:00,-999.0,-99.9,30.40,North,-999,-999.0,-999.0,-999,0.00,,,0.00,weatherlink.com 1.10,2013-04-21 11:21:00,
2013-04-21 07:36:00,40.1,27.0,30.41,East,86,0.0,0.0,61,0.00,,,0.00,weatherlink.com 1.10,2013-04-21 11:36:00,
2013-04-21 07:51:00,40.5,27.0,30.43,East,87,0.0,0.0,60,0.00,,,0.00,weatherlink.com 1.10,2013-04-21 11:51:00,
2013-04-21 08:06:00,41.1,27.0,30.43,East,87,0.0,2.0,58,0.00,,,0.00,weatherlink.com 1.10,2013-04-21 12:06:00,
2013-04-21 08:21:00,43.0,28.0,30.44,East,84,0.0,3.0,56,0.00,,,0.00,weatherlink.com 1.10,2013-04-21 12:21:00,
2013-04-21 08:36:00,43.1,28.0,30.44,East,90,0.0,3.0,56,0.00,,,0.00,weatherlink.com 1.10,2013-04-21 12:36:00,
2013-04-21 08:51:00,44.2,29.0,30.44,ESE,111,0.0,2.0,55,0.00,,,0.00,weatherlink.com 1.10,2013-04-21 12:51:00,
2013-04-21 09:06:00,44.8,28.0,30.45,East,91,1.0,7.0,53,0.00,,,0.00,weatherlink.com 1.10,2013-04-21 13:06:00,
2013-04-21 09:21:00,45.4,28.0,30.45,WSW,253,0.0,5.0,51,0.00,,,0.00,weatherlink.com 1.10,2013-04-21 13:21:00,
2013-04-21 09:36:00,46.7,30.0,30.45,ESE,105,0.0,5.0,52,0.00,,,0.00,weatherlink.com 1.10,2013-04-21 13:36:00,
2013-04-21 09:51:00,47.6,28.0,30.45,ENE,59,0.0,6.0,46,0.00,,,0.00,weatherlink.com 1.10,2013-04-21 13:51:00,
2013-04-21 10:06:00,48.2,27.0,30.45,ESE,103,7.0,7.0,44,0.00,,,0.00,weatherlink.com 1.10,2013-04-21 14:06:00,
2013-04-21 10:21:00,48.7,29.0,30.46,ENE,69,0.0,5.0,47,0.00,,,0.00,weatherlink.com 1.10,2013-04-21 14:21:00,
2013-04-21 10:36:00,49.0,28.0,30.47,East,81,1.0,8.0,45,0.00,,,0.00,weatherlink.com 1.10,2013-04-21 14:36:00,
2013-04-21 10:51:00,50.0,31.0,30.47,East,101,5.0,9.0,48,0.00,,,0.00,weatherlink.com 1.10,2013-04-21 14:51:00,
2013-04-21 11:06:00,50.3,32.0,30.47,East,95,5.0,8.0,49,0.00,,,0.00,weatherlink.com 1.10,2013-04-21 15:06:00,
2013-04-21 11:21:00,51.6,29.0,30.46,SE,124,0.0,7.0,42,0.00,,,0.00,weatherlink.com 1.10,2013-04-21 15:21:00,
2013-04-21 11:36:00,50.4,30.0,30.46,East,89,2.0,5.0,46,0.00,,,0.00,weatherlink.com 1.10,2013-04-21 15:36:00,
2013-04-21 11:51:00,51.2,29.0,30.46,ENE,74,2.0,6.0,42,0.00,,,0.00,weatherlink.com 1.10,2013-04-21 15:51:00,
2013-04-21 12:06:00,52.1,28.0,30.46,WSW,253,0.0,6.0,40,0.00,,,0.00,weatherlink.com 1.10,2013-04-21 16:06:00,
2013-04-21 12:21:00,51.3,29.0,30.46,East,88,2.0,8.0,42,0.00,,,0.00,weatherlink.com 1.10,2013-04-21 16:21:00,
2013-04-21 12:36:00,51.5,29.0,30.45,ENE,74,1.0,9.0,43,0.00,,,0.00,weatherlink.com 1.10,2013-04-21 16:36:00,
2013-04-21 12:51:00,51.8,27.0,30.45,West,261,0.0,8.0,39,0.00,,,0.00,weatherlink.com 1.10,2013-04-21 16:51:00,
2013-04-21 13:06:00,52.5,29.0,30.45,ENE,59,1.0,8.0,40,0.00,,,0.00,weatherlink.com 1.10,2013-04-21 17:06:00,
2013-04-21 13:21:00,52.4,29.0,30.44,East,101,2.0,7.0,40,0.00,,,0.00,weatherlink.com 1.10,2013-04-21 17:21:00,
2013-04-21 13:36:00,52.4,29.0,30.44,ENE,77,8.0,8.0,41,0.00,,,0.00,weatherlink.com 1.10,2013-04-21 17:36:00,
2013-04-21 13:51:00,53.7,29.0,30.43,East,79,3.0,10.0,39,0.00,,,0.00,weatherlink.com 1.10,2013-04-21 17:51:00,
2013-04-21 14:06:00,53.7,28.0,30.42,East,84,2.0,6.0,38,0.00,,,0.00,weatherlink.com 1.10,2013-04-21 18:06:00,
2013-04-21 14:21:00,53.7,30.0,30.42,ESE,111,4.0,7.0,41,0.00,,,0.00,weatherlink.com 1.10,2013-04-21 18:21:00,
2013-04-21 14:36:00,54.1,30.0,30.42,ENE,65,4.0,8.0,40,0.00,,,0.00,weatherlink.com 1.10,2013-04-21 18:36:00,
2013-04-21 14:52:00,54.7,29.0,30.41,ENE,65,0.0,4.0,38,0.00,,,0.00,weatherlink.com 1.10,2013-04-21 18:52:00,
2013-04-21 15:07:00,54.9,28.0,30.41,East,84,0.0,6.0,36,0.00,,,0.00,weatherlink.com 1.10,2013-04-21 19:07:00,
2013-04-21 15:22:00,55.8,32.0,30.41,ENE,71,3.0,10.0,40,0.00,,,0.00,weatherlink.com 1.10,2013-04-21 19:22:00,
2013-04-21 15:37:00,56.4,28.0,30.40,East,101,3.0,8.0,34,0.00,,,0.00,weatherlink.com 1.10,2013-04-21 19:37:00,
2013-04-21 15:52:00,55.3,28.0,30.39,East,86,5.0,9.0,35,0.00,,,0.00,weatherlink.com 1.10,2013-04-21 19:52:00,
2013-04-21 16:07:00,55.8,30.0,30.39,East,80,2.0,6.0,37,0.00,,,0.00,weatherlink.com 1.10,2013-04-21 20:07:00,
2013-04-21 16:22:00,55.6,30.0,30.39,East,92,5.0,8.0,38,0.00,,,0.00,weatherlink.com 1.10,2013-04-21 20:22:00,
2013-04-21 16:37:00,55.5,31.0,30.39,ENE,58,7.0,9.0,39,0.00,,,0.00,weatherlink.com 1.10,2013-04-21 20:37:00,
2013-04-21 16:52:00,54.9,29.0,30.39,ENE,71,2.0,11.0,37,0.00,,,0.00,weatherlink.com 1.10,2013-04-21 20:52:00,
2013-04-21 17:07:00,54.7,30.0,30.39,East,79,3.0,6.0,39,0.00,,,0.00,weatherlink.com 1.10,2013-04-21 21:07:00,
2013-04-21 17:22:00,54.7,29.0,30.38,East,84,2.0,9.0,38,0.00,,,0.00,weatherlink.com 1.10,2013-04-21 21:22:00,
2013-04-21 17:37:00,54.9,31.0,30.38,East,92,1.0,11.0,40,0.00,,,0.00,weatherlink.com 1.10,2013-04-21 21:37:00,
2013-04-21 17:52:00,54.4,31.0,30.39,East,93,5.0,8.0,41,0.00,,,0.00,weatherlink.com 1.10,2013-04-21 21:52:00,
2013-04-21 18:07:00,54.1,31.0,30.38,East,81,3.0,9.0,41,0.00,,,0.00,weatherlink.com 1.10,2013-04-21 22:07:00,
2013-04-21 18:22:00,54.4,33.0,30.39,East,85,0.0,6.0,44,0.00,,,0.00,weatherlink.com 1.10,2013-04-21 22:22:00,
2013-04-21 18:37:00,53.5,30.0,30.39,ENE,70,1.0,9.0,40,0.00,,,0.00,weatherlink.com 1.10,2013-04-21 22:37:00,
2013-04-21 18:52:00,53.2,30.0,30.39,ESE,102,1.0,10.0,42,0.00,,,0.00,weatherlink.com 1.10,2013-04-21 22:52:00,
2013-04-21 19:07:00,53.0,30.0,30.39,ESE,104,3.0,6.0,42,0.00,,,0.00,weatherlink.com 1.10,2013-04-21 23:07:00,
2013-04-21 19:22:00,52.7,31.0,30.39,East,84,2.0,8.0,43,0.00,,,0.00,weatherlink.com 1.10,2013-04-21 23:22:00,
2013-04-21 19:37:00,52.2,31.0,30.40,ESE,106,2.0,4.0,45,0.00,,,0.00,weatherlink.com 1.10,2013-04-21 23:37:00,
2013-04-21 19:52:00,-999.0,-99.9,30.39,North,-999,-999.0,-999.0,-999,0.00,,,0.00,weatherlink.com 1.10,2013-04-21 23:52:00,
2013-04-21 20:07:00,-999.0,-99.9,30.40,North,-999,-999.0,-999.0,-999,0.00,,,0.00,weatherlink.com 1.10,2013-04-22 00:07:00,
2013-04-21 20:22:00,-999.0,-99.9,30.41,North,-999,-999.0,-999.0,-999,0.00,,,0.00,weatherlink.com 1.10,2013-04-22 00:22:00,
2013-04-21 20:37:00,-999.0,-99.9,30.41,North,-999,-999.0,-999.0,-999,0.00,,,0.00,weatherlink.com 1.10,2013-04-22 00:37:00,
2013-04-21 20:52:00,-999.0,-99.9,30.41,North,-999,-999.0,-999.0,-999,0.00,,,0.00,weatherlink.com 1.10,2013-04-22 00:52:00,
2013-04-21 21:07:00,-999.0,-99.9,30.42,North,-999,-999.0,-999.0,-999,0.00,,,0.00,weatherlink.com 1.10,2013-04-22 01:07:00,
2013-04-21 21:22:00,-999.0,-99.9,30.43,North,-999,-999.0,-999.0,-999,0.00,,,0.00,weatherlink.com 1.10,2013-04-22 01:22:00,
2013-04-21 21:37:00,-999.0,-99.9,30.43,North,-999,-999.0,-999.0,-999,0.00,,,0.00,weatherlink.com 1.10,2013-04-22 01:37:00,
2013-04-21 21:52:00,-999.0,-99.9,30.44,North,-999,-999.0,-999.0,-999,0.00,,,0.00,weatherlink.com 1.10,2013-04-22 01:52:00,
2013-04-21 22:07:00,-999.0,-99.9,30.44,North,-999,-999.0,-999.0,-999,0.00,,,0.00,weatherlink.com 1.10,2013-04-22 02:07:00,
2013-04-21 22:23:00,-999.0,-99.9,30.44,North,-999,-999.0,-999.0,-999,0.00,,,0.00,weatherlink.com 1.10,2013-04-22 02:23:00,
2013-04-21 22:38:00,-999.0,-99.9,30.45,North,-999,-999.0,-999.0,-999,0.00,,,0.00,weatherlink.com 1.10,2013-04-22 02:38:00,
2013-04-21 22:53:00,-999.0,-99.9,30.44,North,-999,-999.0,-999.0,-999,0.00,,,0.00,weatherlink.com 1.10,2013-04-22 02:53:00,
2013-04-21 23:08:00,-999.0,-99.9,30.45,North,-999,-999.0,-999.0,-999,0.00,,,0.00,weatherlink.com 1.10,2013-04-22 03:08:00,
2013-04-21 23:23:00,-999.0,-99.9,30.44,North,-999,-999.0,-999.0,-999,0.00,,,0.00,weatherlink.com 1.10,2013-04-22 03:23:00,
2013-04-21 23:38:00,-999.0,-99.9,30.44,North,-999,-999.0,-999.0,-999,0.00,,,0.00,weatherlink.com 1.10,2013-04-22 03:38:00,
2013-04-21 23:53:00,-999.0,-99.9,30.44,North,-999,-999.0,-999.0,-999,0.00,,,0.00,weatherlink.com 1.10,2013-04-22 03:53:00,